SCP
0 0 0 0 0 0 0 0 0 0 0 0 0 0 0 0 0 0 0 0 1 1 0 0 0 0 0 0 0 0 0 0 1 1 1 1 1 1
0 0 0 0 0 0 0 0 0 0 0 0 0 0 0 0 0 0 0 0 1 1 1 0 0 0 0 0 0 0 0 0 1 1 1 1 1 1
0 0 0 0 0 0 0 0 0 0 0 0 0 0 0 0 0 0 0 0 0 1 1 1 1 0 0 0 0 0 0 0 1 1 1 1 1 1
0 0 0 0 0 0 0 0 0 0 0 0 0 0 0 0 0 0 0 0 0 0 0 0 1 1 0 0 0 0 0 0 0 1 1 1 1 1
0 0 0 0 0 0 0 0 0 0 0 0 0 0 0 0 0 0 0 0 0 0 0 0 0 0 0 0 0 0 0 0 0 0 1 1 0 0
0 0 0 0 0 0 0 0 0 0 0 0 0 0 0 0 0 0 0 0 0 0 0 0 0 0 0 0 0 0 0 0 0 0 0 0 0 0
0 0 0 0 0 0 0 0 0 0 0 0 0 0 0 0 0 0 0 0 0 0 0 0 0 0 0 0 0 0 0 0 0 0 0 0 0 0
0 0 0 0 0 0 0 0 0 0 0 0 0 0 0 0 0 0 0 0 0 0 0 0 0 0 0 0 0 0 0 0 0 0 0 0 0 0
0 0 0 0 0 0 0 0 0 0 0 0 0 0 0 0 0 0 0 0 0 0 0 0 0 0 0 0 0 0 0 0 0 0 0 0 0 0
0 0 0 0 0 0 0 0 0 0 0 0 0 0 0 0 0 0 0 0 0 0 0 0 0 0 0 0 0 0 0 0 0 0 0 0 0 0
0 0 0 0 0 0 0 0 0 0 0 0 0 0 0 0 0 0 0 0 0 0 0 0 0 0 0 0 0 0 0 0 0 0 0 0 0 0
0 0 0 0 0 0 0 0 0 0 0 0 0 0 0 0 0 0 0 0 0 0 0 0 0 0 0 0 0 0 0 0 0 0 0 0 0 0
0 0 0 0 0 0 0 0 0 0 0 0 0 0 0 0 0 0 0 0 0 0 0 0 0 0 0 0 0 0 0 0 0 0 0 0 0 0
0 0 0 0 0 0 0 0 0 0 0 0 0 0 0 0 0 0 0 0 0 0 0 0 0 0 0 0 0 0 0 0 0 0 0 0 0 0
0 0 0 0 0 0 0 0 0 0 0 0 0 0 0 0 0 0 0 0 0 0 0 0 0 0 0 0 0 0 0 0 0 0 0 0 0 0
0 0 0 0 0 0 0 0 0 0 0 0 0 0 0 0 0 0 0 0 0 0 0 0 0 0 0 0 0 0 0 0 0 0 0 0 0 0
0 0 0 0 0 0 0 0 0 0 0 0 0 0 0 0 0 0 0 0 0 0 0 0 0 0 0 0 0 0 0 0 0 0 0 0 0 0
0 0 0 0 0 0 0 0 0 0 0 0 0 0 0 0 0 0 0 0 0 0 0 0 0 0 0 0 0 0 0 0 0 0 0 0 0 0
0 0 0 0 0 0 0 0 0 0 0 0 0 0 0 0 0 0 0 0 0 0 0 0 0 0 0 0 0 0 0 0 0 0 0 0 0 0
0 0 0 0 0 0 0 0 0 0 0 0 0 0 0 0 0 0 0 0 0 0 0 0 0 0 0 0 0 0 0 0 0 0 0 0 0 0
0 0 0 0 0 0 0 0 0 0 0 0 0 0 0 0 0 0 0 0 0 0 0 0 0 0 0 0 0 0 0 0 0 0 0 0 0 0
0 0 0 0 0 0 0 0 0 0 0 0 0 0 0 0 0 0 0 0 0 0 0 0 0 0 0 0 0 0 0 0 0 0 0 0 0 0
0 0 0 0 0 0 0 0 0 0 0 0 0 0 0 0 0 0 0 0 0 0 0 0 0 0 0 0 0 0 0 0 0 0 0 0 0 0
Wind_Speed
5 5 5 4 4 4 4 4 6 9 10 6 4 4 4 4 7 6 6 11 14 14 14 14 14 16 16 15 15 15 15 14 14 13 14 14 15 15
4 5 5 4 4 4 4 5 5 7 10 7 6 6 6 7 10 7 7 13 15 15 15 14 14 15 15 14 14 14 14 14 13 14 14 14 14 14
5 6 6 5 4 4 4 4 5 5 9 9 6 6 7 7 7 6 6 6 7 13 14 13 13 13 14 14 13 14 14 14 13 13 13 14 13 13
6 6 7 6 6 5 4 5 5 5 7 11 9 7 8 7 7 7 7 7 6 11 13 13 12 12 13 13 12 13 13 12 12 12 11 12 12 12
6 7 7 6 7 6 5 6 5 6 6 8 9 7 6 6 7 7 7 6 6 8 10 11 11 11 12 11 11 11 10 10 10 10 9 10 10 10
6 7 7 7 8 7 6 7 6 7 6 7 8 7 7 6 5 6 6 4 5 6 7 7 9 9 9 9 9 8 7 7 6 7 7 7 8 9
7 7 7 9 10 9 7 6 6 6 6 7 8 8 7 6 5 5 6 5 5 4 4 4 4 3 3 5 5 4 5 5 5 5 6 6 6 7
7 7 7 7 9 12 14 13 11 9 8 7 7 8 8 7 5 5 5 5 5 3 3 4 2 2 2 1 2 3 3 4 4 4 5 5 5 5
6 6 6 6 9 6 9 12 11 14 13 10 9 9 8 7 6 7 6 6 6 4 3 4 2 2 2 1 1 2 3 2 3 3 4 4 4 5
6 6 6 6 7 8 7 7 7 8 9 8 7 8 7 7 6 6 6 5 5 3 2 3 3 2 2 1 1 2 2 3 3 3 3 4 4 4
7 6 6 6 10 12 8 7 8 7 8 10 9 9 9 9 7 4 4 4 4 3 2 1 2 2 2 2 3 4 2 2 3 2 2 2 2 1
6 6 8 9 11 12 7 6 7 7 6 6 6 6 5 5 7 4 3 3 3 3 2 1 1 1 2 2 2 3 2 1 1 1 2 2 2 1
5 5 5 11 12 12 10 6 7 7 5 4 4 4 3 3 3 2 2 2 2 3 2 1 1 1 0 2 3 3 2 2 2 2 3 4 3 2
5 5 6 11 12 12 8 7 8 7 3 3 3 3 3 3 2 2 1 1 1 2 2 1 1 1 1 1 2 2 2 2 2 2 2 5 5 5
5 9 11 12 11 7 7 9 7 3 3 3 3 3 3 2 2 1 1 1 2 3 2 2 0 1 1 1 0 1 1 2 2 2 3 3 2 2
6 8 10 10 7 6 7 6 4 3 3 2 2 2 2 2 2 1 1 1 2 3 4 3 2 2 2 2 1 1 1 1 2 2 3 3 2 2
6 5 4 4 4 4 4 4 3 3 3 2 2 2 2 2 2 2 1 1 1 1 2 3 3 4 4 3 2 2 2 2 1 2 2 3 3 3
6 4 4 4 4 4 4 4 3 3 3 3 2 2 2 2 2 1 1 1 1 1 1 1 1 2 3 5 5 2 2 2 2 2 3 4 3 3
4 3 4 4 4 4 4 4 4 3 3 3 3 2 2 2 1 1 1 2 2 2 2 1 1 2 3 2 4 4 2 2 3 3 3 3 2 2
3 3 4 4 4 4 4 4 4 3 3 3 2 2 2 1 1 1 1 2 2 3 2 2 2 2 2 2 1 3 4 2 3 3 3 3 2 2
4 4 4 4 4 4 4 3 4 3 3 3 2 2 2 1 1 1 2 4 3 3 3 2 1 1 1 2 3 3 4 4 3 1 2 2 3 3
4 4 4 4 4 4 4 3 3 3 3 3 2 2 1 1 1 1 2 3 3 3 3 2 2 2 3 4 4 3 3 4 5 5 3 1 2 2
4 4 4 4 4 4 3 4 4 3 3 2 2 2 1 1 1 2 2 3 3 4 4 3 3 3 3 3 4 3 4 3 3 4 4 4 3 4
Wind_Direction
261 260 263 264 259 258 259 257 270 289 292 289 290 276 276 271 268 269 268 279 282 279 275 274 275 276 268 266 268 269 268 269 260 256 254 253 258 256
260 263 265 268 264 260 259 256 252 264 280 289 292 293 291 288 283 278 272 281 281 280 278 273 272 272 269 265 265 266 265 267 258 255 252 251 258 261
273 272 272 271 268 266 264 260 257 258 274 286 286 292 288 285 288 281 274 271 271 276 280 277 275 272 268 264 264 265 264 264 256 258 253 254 259 260
274 274 275 278 273 270 267 264 264 262 268 282 289 292 286 282 284 284 284 280 273 276 278 278 278 273 267 262 260 261 264 259 256 254 252 254 261 261
270 271 275 275 276 273 270 269 269 271 269 277 286 288 288 287 286 286 281 279 278 276 276 276 277 275 266 262 258 260 261 257 253 252 255 255 260 260
270 269 272 270 270 270 270 265 268 271 272 277 283 288 287 288 284 286 287 282 285 287 286 284 284 281 270 266 260 255 248 248 252 255 256 257 259 256
280 273 271 274 277 276 278 273 272 275 277 278 282 287 286 288 283 283 286 292 290 283 288 287 286 278 268 262 253 235 234 239 245 256 266 269 262 256
289 286 280 279 282 284 285 285 282 281 279 276 279 282 284 284 289 286 287 292 295 294 290 292 294 289 288 255 216 229 238 240 245 255 270 272 263 263
291 293 294 292 294 285 288 291 289 287 283 277 275 276 280 282 283 282 282 285 284 291 299 294 300 297 296 304 247 248 262 260 249 255 272 276 270 269
290 288 288 292 293 295 292 292 291 291 288 283 276 279 283 283 274 271 274 286 289 298 301 289 308 308 316 333 329 295 283 274 272 270 268 270 270 263
297 296 297 294 299 303 300 295 297 296 296 290 288 288 291 296 291 283 278 283 292 301 324 282 293 318 326 330 340 347 328 290 286 282 270 258 249 243
302 298 301 304 306 309 302 296 296 299 302 303 307 314 313 314 311 289 271 267 280 293 302 300 288 326 346 349 356 353 348 358 33 46 65 51 45 85
306 307 306 310 310 312 311 301 298 306 308 310 312 316 320 327 329 325 312 273 269 271 276 303 301 333 9 326 345 353 11 40 61 67 56 46 46 81
308 310 314 319 317 318 319 316 318 321 318 321 326 327 329 332 332 340 351 359 297 280 296 283 247 221 165 309 321 346 21 29 47 44 41 46 47 64
317 321 322 324 324 327 335 331 331 332 333 331 327 323 322 313 311 332 353 31 37 17 360 355 26 128 118 164 234 338 21 20 35 50 46 46 48 55
323 322 326 331 334 336 336 337 339 336 331 321 319 316 315 322 326 324 329 359 49 29 22 32 42 96 96 87 107 76 47 50 30 41 48 42 36 48
322 325 335 341 348 346 341 340 345 347 342 332 325 321 321 331 330 330 347 40 85 70 44 43 57 67 67 73 83 72 69 64 57 56 63 59 43 42
337 343 347 347 344 341 339 338 342 342 335 327 325 323 321 325 330 342 37 83 84 68 53 55 77 73 63 45 35 81 75 69 58 53 63 74 51 31
353 353 345 340 338 335 335 332 330 329 325 324 323 326 327 327 335 360 73 93 88 80 62 50 53 88 93 62 13 23 84 87 77 65 58 71 70 25
359 349 339 336 334 331 331 330 326 327 329 331 334 339 345 349 3 33 93 109 101 90 72 52 49 67 107 115 89 25 30 89 91 81 67 66 66 49
349 345 338 334 331 329 329 327 324 325 329 334 341 345 349 3 21 49 96 103 99 92 84 52 28 60 95 94 84 61 41 47 68 94 92 79 64 48
342 340 337 334 332 329 327 324 326 330 332 335 340 353 0 11 32 73 94 101 101 103 95 74 62 69 77 97 101 91 68 52 52 52 53 100 129 120
336 334 331 329 329 327 324 327 331 332 330 328 339 358 16 20 42 82 95 104 109 107 102 92 76 73 74 92 103 97 83 66 59 62 51 50 92 117